When you browse on this site, cookies collect data to enhance your experience and personalize the content and advertising you see.
Visit our Privacy Policy to learn more. By continuing to use the site, you agree to this use of cookies and data.
  • en Suisse
  • Liste des pays
  • À 7 jours
  • Température de l'eau
  • Carte météo
  • Widgets météo
  • user-avatar
    Se connecter

    Météo par heure à Tuson

    Ce jour, 9 Décembre, Lundi

    Heure Température Précipitation Vent Pression Humidité
    00:00 +16°C° 1.3 mm 2 m/s 694 mmHg 76%
    01:00 +16°C° 1.3 mm 2 m/s 694 mmHg 75%
    02:00 +16°C° 1.3 mm 2 m/s 693 mmHg 74%
    03:00 +14°C° 1.6 mm 4 m/s 693 mmHg 75%
    04:00 +14°C° 1.6 mm 5 m/s 693 mmHg 76%
    05:00 +15°C° 0 mm 1 m/s 694 mmHg 79%
    06:00 +15°C° 0.5 mm 1 m/s 693 mmHg 78%
    07:00 +15°C° 0.5 mm 2 m/s 693 mmHg 77%
    08:00 +15°C° 0.5 mm 2 m/s 693 mmHg 76%
    09:00 +14°C° 0.7 mm 3 m/s 693 mmHg 71%
    10:00 +15°C° 0.7 mm 4 m/s 693 mmHg 65%
    11:00 +16°C° 0.7 mm 5 m/s 694 mmHg 59%
    12:00 +15°C° 1.8 mm 5 m/s 693 mmHg 61%
    13:00 +15°C° 1.8 mm 5 m/s 693 mmHg 63%
    14:00 +14°C° 1.8 mm 5 m/s 692 mmHg 65%
    15:00 +14°C° 0.4 mm 4 m/s 693 mmHg 64%
    16:00 +13°C° 0.4 mm 3 m/s 693 mmHg 63%
    17:00 +14°C° 0.4 mm 2 m/s 694 mmHg 62%
    18:00 +14°C° 0 mm 2 m/s 694 mmHg 65%
    19:00 +13°C° 0 mm 1 m/s 694 mmHg 68%
    20:00 +13°C° 0 mm 1 m/s 695 mmHg 71%
    21:00 +12°C° 0 mm 1 m/s 695 mmHg 72%
    22:00 +12°C° 0 mm 1 m/s 695 mmHg 73%
    23:00 +12°C° 0 mm 1 m/s 696 mmHg 74%

    Demain, 10 Décembre, Mardi

    Heure Température Précipitation Vent Pression Humidité
    00:00 +12°C° 0 mm 1 m/s 696 mmHg 75%
    01:00 +11°C° 0 mm 1 m/s 696 mmHg 76%
    02:00 +10°C° 0 mm 0 m/s 697 mmHg 77%
    03:00 +10°C° 0 mm 0 m/s 697 mmHg 77%
    04:00 +10°C° 0 mm 0 m/s 697 mmHg 78%
    05:00 +9°C° 0 mm 0 m/s 697 mmHg 79%
    06:00 +10°C° 0 mm 0 m/s 698 mmHg 78%
    07:00 +11°C° 0 mm 1 m/s 699 mmHg 77%
    08:00 +11°C° 0 mm 1 m/s 699 mmHg 75%
    09:00 +13°C° 0 mm 1 m/s 700 mmHg 67%
    10:00 +14°C° 0 mm 1 m/s 700 mmHg 59%
    11:00 +16°C° 0 mm 1 m/s 701 mmHg 50%
    12:00 +18°C° 0 mm 1 m/s 700 mmHg 47%
    13:00 +18°C° 0 mm 1 m/s 700 mmHg 43%
    14:00 +19°C° 0 mm 1 m/s 699 mmHg 39%
    15:00 +19°C° 0 mm 1 m/s 700 mmHg 43%
    16:00 +18°C° 0 mm 1 m/s 700 mmHg 46%
    17:00 +17°C° 0 mm 2 m/s 700 mmHg 49%
    18:00 +16°C° 0 mm 1 m/s 700 mmHg 51%
    19:00 +15°C° 0 mm 1 m/s 700 mmHg 52%
    20:00 +14°C° 0 mm 1 m/s 700 mmHg 54%
    21:00 +14°C° 0 mm 1 m/s 700 mmHg 54%
    22:00 +14°C° 0 mm 1 m/s 700 mmHg 55%
    23:00 +13°C° 0 mm 1 m/s 700 mmHg 55%

    Après-demain, 11 Décembre, Mercredi

    Heure Température Précipitation Vent Pression Humidité
    00:00 +13°C° 0 mm 2 m/s 700 mmHg 55%
    01:00 +13°C° 0 mm 2 m/s 699 mmHg 54%
    02:00 +12°C° 0 mm 3 m/s 699 mmHg 54%
    03:00 +12°C° 0 mm 3 m/s 699 mmHg 54%
    04:00 +12°C° 0 mm 3 m/s 699 mmHg 54%
    05:00 +11°C° 0 mm 3 m/s 698 mmHg 55%
    06:00 +12°C° 0 mm 2 m/s 698 mmHg 55%
    07:00 +12°C° 0 mm 2 m/s 698 mmHg 56%
    08:00 +12°C° 0 mm 2 m/s 699 mmHg 57%
    09:00 +14°C° 0 mm 2 m/s 699 mmHg 51%
    10:00 +15°C° 0 mm 2 m/s 699 mmHg 45%
    11:00 +17°C° 0 mm 2 m/s 699 mmHg 39%
    12:00 +18°C° 0 mm 2 m/s 699 mmHg 36%
    13:00 +20°C° 0 mm 1 m/s 698 mmHg 32%
    14:00 +21°C° 0 mm 1 m/s 698 mmHg 28%
    15:00 +20°C° 0 mm 1 m/s 698 mmHg 31%
    16:00 +18°C° 0 mm 2 m/s 697 mmHg 34%
    17:00 +18°C° 0 mm 2 m/s 697 mmHg 38%
    18:00 +16°C° 0 mm 2 m/s 697 mmHg 42%
    19:00 +15°C° 0 mm 1 m/s 697 mmHg 46%
    20:00 +14°C° 0 mm 1 m/s 697 mmHg 50%
    21:00 +14°C° 0 mm 1 m/s 697 mmHg 52%
    22:00 +13°C° 0 mm 1 m/s 697 mmHg 54%
    23:00 +13°C° 0 mm 1 m/s 698 mmHg 56%

    12 Décembre, Jeudi

    Heure Température Précipitation Vent Pression Humidité
    00:00 +11°C° 0 mm 0 m/s 698 mmHg 57%
    01:00 +11°C° 0 mm 0 m/s 697 mmHg 58%
    02:00 +10°C° 0 mm 0 m/s 697 mmHg 60%
    03:00 +10°C° 0 mm 0 m/s 697 mmHg 59%
    04:00 +10°C° 0 mm 0 m/s 697 mmHg 59%
    05:00 +10°C° 0 mm 0 m/s 697 mmHg 58%
    06:00 +10°C° 0 mm 0 m/s 698 mmHg 58%
    07:00 +10°C° 0 mm 0 m/s 698 mmHg 57%
    08:00 +12°C° 0 mm 1 m/s 699 mmHg 57%
    09:00 +14°C° 0 mm 1 m/s 699 mmHg 49%
    10:00 +15°C° 0 mm 1 m/s 700 mmHg 41%
    11:00 +18°C° 0 mm 1 m/s 701 mmHg 34%
    12:00 +19°C° 0 mm 1 m/s 700 mmHg 31%
    13:00 +20°C° 0 mm 1 m/s 700 mmHg 29%
    14:00 +21°C° 0 mm 1 m/s 699 mmHg 26%
    15:00 +20°C° 0 mm 1 m/s 699 mmHg 31%
    16:00 +19°C° 0 mm 1 m/s 699 mmHg 36%
    17:00 +17°C° 0 mm 2 m/s 699 mmHg 40%
    18:00 +18°C° 0 mm 1 m/s 699 mmHg 43%
    19:00 +16°C° 0 mm 1 m/s 699 mmHg 47%
    20:00 +15°C° 0 mm 1 m/s 699 mmHg 50%
    21:00 +13°C° 0 mm 0 m/s 699 mmHg 51%
    22:00 +13°C° 0 mm 0 m/s 699 mmHg 52%
    23:00 +12°C° 0 mm 0 m/s 699 mmHg 53%

    13 Décembre, Vendredi

    Heure Température Précipitation Vent Pression Humidité
    00:00 +12°C° 0 mm 0 m/s 698 mmHg 54%
    01:00 +12°C° 0 mm 0 m/s 698 mmHg 54%
    02:00 +11°C° 0 mm 0 m/s 698 mmHg 55%
    03:00 +11°C° 0 mm 0 m/s 698 mmHg 55%
    04:00 +11°C° 0 mm 0 m/s 698 mmHg 55%
    05:00 +11°C° 0 mm 0 m/s 697 mmHg 55%
    06:00 +11°C° 0 mm 0 m/s 698 mmHg 54%
    07:00 +11°C° 0 mm 0 m/s 698 mmHg 53%
    08:00 +12°C° 0 mm 0 m/s 698 mmHg 52%
    09:00 +15°C° 0 mm 1 m/s 698 mmHg 45%
    10:00 +18°C° 0 mm 1 m/s 698 mmHg 37%
    11:00 +20°C° 0 mm 1 m/s 699 mmHg 30%
    12:00 +21°C° 0 mm 1 m/s 698 mmHg 28%
    13:00 +21°C° 0 mm 1 m/s 697 mmHg 26%
    14:00 +22°C° 0 mm 1 m/s 697 mmHg 25%
    15:00 +21°C° 0 mm 1 m/s 697 mmHg 28%
    16:00 +21°C° 0 mm 1 m/s 696 mmHg 32%
    17:00 +20°C° 0 mm 1 m/s 696 mmHg 36%
    18:00 +19°C° 0 mm 1 m/s 696 mmHg 39%
    19:00 +18°C° 0 mm 1 m/s 696 mmHg 43%
    20:00 +15°C° 0 mm 0 m/s 696 mmHg 46%
    21:00 +14°C° 0 mm 0 m/s 696 mmHg 46%
    22:00 +14°C° 0 mm 0 m/s 696 mmHg 46%
    23:00 +13°C° 0 mm 0 m/s 695 mmHg 47%

    14 Décembre, Samedi

    Heure Température Précipitation Vent Pression Humidité
    00:00 +13°C° 0 mm 0 m/s 695 mmHg 47%
    01:00 +13°C° 0 mm 0 m/s 695 mmHg 47%
    02:00 +13°C° 0 mm 0 m/s 694 mmHg 47%
    03:00 +12°C° 0 mm 0 m/s 694 mmHg 47%
    04:00 +12°C° 0 mm 0 m/s 693 mmHg 47%
    05:00 +12°C° 0 mm 0 m/s 693 mmHg 47%
    06:00 +12°C° 0 mm 0 m/s 693 mmHg 47%
    07:00 +14°C° 0 mm 1 m/s 693 mmHg 47%
    08:00 +14°C° 0 mm 1 m/s 693 mmHg 47%
    09:00 +16°C° 0 mm 1 m/s 694 mmHg 41%
    10:00 +19°C° 0 mm 1 m/s 694 mmHg 35%
    11:00 +21°C° 0 mm 1 m/s 694 mmHg 29%
    12:00 +21°C° 0 mm 2 m/s 693 mmHg 27%
    13:00 +22°C° 0 mm 3 m/s 693 mmHg 26%
    14:00 +22°C° 0 mm 3 m/s 692 mmHg 25%
    15:00 +21°C° 0 mm 3 m/s 692 mmHg 29%
    16:00 +21°C° 0 mm 3 m/s 692 mmHg 32%
    17:00 +20°C° 0 mm 3 m/s 691 mmHg 36%
    18:00 +19°C° 0 mm 3 m/s 691 mmHg 39%
    19:00 +18°C° 0 mm 2 m/s 691 mmHg 42%
    20:00 +17°C° 0 mm 2 m/s 691 mmHg 45%
    21:00 +16°C° 0 mm 2 m/s 691 mmHg 46%
    22:00 +16°C° 0 mm 2 m/s 691 mmHg 47%
    23:00 +14°C° 0 mm 3 m/s 691 mmHg 48%
    Voir plus